Location: Newark
(37.8333°N, 119.5000°W)
Time: 08:58:47
(UTC+00:00)

A-11 Canister half - All Passes

Search period start: 26 August 2019 00:00
Search period end: 05 September 2019 00:00
Orbit: 1526 x 1682 km, 47.3° (Epoch: 25 August)

Date Brightness Start Highest point End Pass type
(mag) Time Alt. Az. Time Alt. Az. Time Alt. Az.
26 Aug - 01:47:36 10° WNW 01:57:25 56° SW 02:07:05 10° SSE daylight
26 Aug - 03:56:34 10° W 04:00:54 14° WSW 04:05:13 10° SSW visible
26 Aug - 17:03:41 10° SSW 17:12:41 44° SE 17:21:56 10° ENE daylight
26 Aug - 19:07:31 10° WSW 19:17:25 75° NNW 19:27:37 10° ENE daylight
26 Aug - 21:14:09 10° WNW 21:23:51 50° N 21:33:40 10° ENE daylight
26 Aug - 23:20:25 10° WNW 23:30:32 64° NNE 23:40:35 10° ESE daylight
27 Aug - 01:25:55 10° WNW 01:35:48 59° SW 01:45:33 10° SSE daylight
27 Aug - 03:34:22 10° W 03:39:21 15° WSW 03:44:18 10° SSW visible
27 Aug - 16:42:14 10° SSW 16:51:05 41° SE 17:00:11 10° ENE daylight
27 Aug - 18:45:52 10° WSW 18:55:45 77° NNW 19:05:56 10° ENE daylight
27 Aug - 20:52:25 10° WNW 21:02:06 50° N 21:11:56 10° ENE daylight
27 Aug - 22:58:44 10° WNW 23:08:49 63° NNE 23:18:51 10° E daylight
28 Aug - 01:04:13 10° WNW 01:14:10 62° SW 01:23:59 10° SE daylight
28 Aug - 03:12:16 10° W 03:17:47 16° WSW 03:23:17 10° SSW visible
28 Aug - 16:20:48 10° SSW 16:29:30 39° SE 16:38:27 10° ENE daylight
28 Aug - 18:24:12 10° WSW 18:34:04 80° NNW 18:44:15 10° ENE daylight
28 Aug - 20:30:42 10° W 20:40:22 50° N 20:50:12 10° ENE daylight
28 Aug - 22:37:03 10° WNW 22:47:06 61° NNE 22:57:08 10° E daylight
29 Aug - 00:42:31 10° WNW 00:52:32 65° SW 01:02:25 10° SE daylight
29 Aug - 02:50:14 10° W 02:56:14 18° WSW 03:02:12 10° SSW visible
29 Aug - 15:59:22 10° SSW 16:07:55 37° SE 16:16:42 10° ENE daylight
29 Aug - 18:02:34 10° WSW 18:12:23 82° NNW 18:22:34 10° ENE daylight
29 Aug - 20:08:58 10° W 20:18:38 51° N 20:28:28 10° ENE daylight
29 Aug - 22:15:23 10° WNW 22:25:23 60° NNE 22:35:24 10° E daylight
30 Aug - 00:20:51 10° WNW 00:30:54 68° SW 00:40:51 10° SE daylight
30 Aug - 02:28:15 10° W 02:34:40 19° WSW 02:41:03 10° SSW daylight
30 Aug - 15:37:58 10° S 15:46:20 35° SE 15:54:56 10° ENE daylight
30 Aug - 17:40:56 10° WSW 17:50:44 85° NNW 18:00:53 10° ENE daylight
30 Aug - 19:47:15 10° W 19:56:54 51° N 20:06:44 10° ENE daylight
30 Aug - 21:53:42 10° WNW 22:03:40 59° NNE 22:13:40 10° E daylight
30 Aug - 23:59:10 10° WNW 00:09:15 71° SW 00:19:15 10° SE daylight
31 Aug - 02:06:19 10° W 02:13:06 21° SW 02:19:51 10° SSW daylight
31 Aug - 15:16:34 10° S 15:24:46 33° SE 15:33:10 10° ENE daylight
31 Aug - 17:19:17 10° WSW 17:29:04 87° NNW 17:39:12 10° ENE daylight
31 Aug - 19:25:32 10° W 19:35:10 52° N 19:45:01 10° ENE daylight
31 Aug - 21:32:01 10° WNW 21:41:56 57° NNE 21:51:56 10° E daylight
31 Aug - 23:37:29 10° WNW 23:47:37 73° SW 23:57:39 10° SE daylight
01 Sep - 01:44:24 10° W 01:51:32 22° SW 01:58:37 10° S daylight
01 Sep - 14:55:12 10° S 15:03:11 31° SE 15:11:22 10° ENE daylight
01 Sep - 16:57:40 10° SW 17:07:24 90° S 17:17:31 10° ENE daylight
01 Sep - 19:03:49 10° W 19:13:25 52° N 19:23:17 10° ENE daylight
01 Sep - 21:10:20 10° WNW 21:20:13 56° NNE 21:30:11 10° E daylight
01 Sep - 23:15:49 10° WNW 23:25:57 76° SW 23:36:03 10° SE daylight
02 Sep - 01:22:32 10° WNW 01:29:57 24° SW 01:37:21 10° S daylight
02 Sep - 14:33:51 10° S 14:41:37 29° SE 14:49:35 10° ENE daylight
02 Sep - 16:36:04 10° SW 16:45:46 87° SE 16:55:50 10° ENE daylight
02 Sep - 18:42:06 10° W 18:51:42 53° N 19:01:33 10° ENE daylight
02 Sep - 20:48:39 10° WNW 20:58:29 55° NNE 21:08:26 10° E daylight
02 Sep - 22:54:09 10° WNW 23:04:18 79° SW 23:14:25 10° SE daylight
03 Sep - 01:00:41 10° WNW 01:08:22 25° SW 01:16:02 10° S daylight
03 Sep - 14:12:32 10° S 14:20:04 27° SE 14:27:46 10° ENE daylight
03 Sep - 16:14:27 10° SW 16:24:07 84° SE 16:34:09 10° ENE daylight
03 Sep - 18:20:24 10° W 18:29:59 53° NNW 18:39:50 10° ENE daylight
03 Sep - 20:26:58 10° WNW 20:36:45 54° NNE 20:46:41 10° E daylight
03 Sep - 22:32:29 10° WNW 22:42:39 82° SW 22:52:48 10° SE daylight
04 Sep - 00:38:51 10° WNW 00:46:47 27° SW 00:54:43 10° S daylight
04 Sep - 13:51:13 10° S 13:58:30 25° SE 14:05:57 10° ENE daylight
04 Sep - 15:52:51 10° SW 16:02:29 81° SE 16:12:28 10° ENE daylight
04 Sep - 17:58:41 10° W 18:08:15 54° NNW 18:18:07 10° ENE daylight
04 Sep - 20:05:17 10° WNW 20:15:02 53° NNE 20:24:56 10° E daylight
04 Sep - 22:10:50 10° WNW 22:20:59 85° SW 22:31:10 10° SE daylight
